{"data":{"norad_id":51891,"intl_designator":"2022-022AR","name":"STARLINK-3549","alt_names":[],"object_type":"PAYLOAD","status":"ACTIVE","operator":null,"country":"US","launch_date":"2022-03-03","launch_site_code":"AFETR","launch_vehicle":null,"mission":null,"orbit_class":"UNKNOWN","rcs_meters":null,"size_class":null,"mass_kg":null,"dimensions":null,"purposes":["comms"],"wikipedia_slug":null,"has_3d_model":false,"image_url":null,"decayed_at":null,"tle_current":{"epoch":"2026-09-20T01:27:50.679072Z","epoch_age_seconds":94136,"freshness":"FRESH","line1":"1 51891U 22022AR  26263.06100323 -.00000055  00000+0  95087-5 0  9990","line2":"2 51891  53.1586 189.4245 0001522  99.3795 260.7380 15.34386631252879","mean_motion":15.34386631,"eccentricity":0.0001522,"inclination_deg":53.1586,"raan_deg":189.4245,"arg_perigee_deg":99.3795,"mean_anomaly_deg":260.738,"bstar":9.5087e-6,"rev_number":25287,"period_min":93.848575770079,"perigee_km":461.70179404866,"apogee_km":463.78415791335,"semimajor_km":6840.879975981,"source":"CELESTRAK","updated_at":"2026-09-20T09:00:39.973177Z"}}}